User: anonymous   Login
Location: Mentone
(34.5413°N, 85.5351°W)
Time: 03:14:12
(UTC-05:00)
Language:

UOSAT-12 - Orbit

View from above orbital plane
View from above orbital plane
View from above satellite
View from above satellite

Ground track
Ground track

The orbit data is extracted from the following two-line orbital elements,

1 25693U 99021A   15210.15495421  .00000039  00000-0  24065-4 0  9999
2 25693 064.5561 088.9454 0039103 235.3394 274.4151 14.80485067878153
Epoch (UTC): 29 July 2015 03:43:08
Eccentricity: 0.0039103
inclination: 64.5561°
perigee height: 600 km
apogee height: 655 km
right ascension of ascending node: 88.9454°
argument of perigee: 235.3394°
revolutions per day: 14.80485067
mean anomaly at epoch: 274.4151°
orbit number at epoch: 87815

The dashed part of the orbit path shows where the satellite is in the earth's shadow,  

DLR